Weather History for Cross City, FL

Change the Weather History Date:

Saturday, February 23, 2013

  Actual Average Record
Temperature  
Mean Temperature 75 °F 58 °F  
Max Temperature 81 °F 72 °F 81 °F (2011)
Min Temperature 68 °F 45 °F 28 °F (1999)
Degree Days  
Heating Degree Days 0 7  
Month to date heating degree days 191 206  
Since 1 July heating degree days 797 1084  
Cooling Degree Days 10 1  
Month to date cooling degree days 36 17  
Year to date cooling degree days 87 28  
Growing Degree Days 24 (Base 50)    
Moisture  
Dew Point 67 °F    
Average Humidity 83    
Maximum Humidity 97    
Minimum Humidity 64    
Precipitation  
Precipitation 0.15 in 0.16 in 2.09 in (2014)
Month to date precipitation 1.57 2.47  
Year to date precipitation 2.15 6.51  
Sea Level Pressure  
Sea Level Pressure 29.94 in    
Wind  
Wind Speed 10 mph (SSW)    
Max Wind Speed 21 mph    
Max Gust Speed 30 mph    
T = Trace of Precipitation, MM = Missing Value Source: NWS Daily Summary

Daily Weather History Graph

Daily Weather History Graph

Search for Another Location

Airport:

Trip Planner

Search our weather history database for the weather conditions in past years. The results will help you decide how hot, cold, wet, or windy it might be!

Date:

Astronomy

Feb. 23, 2013 Rise Set
Actual Time 7:04 AM EST 6:27 PM EST
Civil Twilight 6:40 AM EST 6:51 PM EST
Nautical Twilight 6:12 AM EST 7:19 PM EST
Astronomical Twilight 5:44 AM EST 7:47 PM EST
Moon 4:41 PM EST (2/23) 5:19 AM EST (2/23)
Length of Visible Light 12h 11m
Length of Day
11h 23m
Waxing Gibbous, 95% of the Moon is Illuminated
Feb 23
Waxing Gibbous
Feb 25
Full
Mar 4
Last Quarter
Mar 11
New
Mar 19
First Quarter

Hourly Weather History & Observations

Time (EST) Temp. Dew Point Humidity Pressure Visibility Wind Dir Wind Speed Gust Speed Precip Events Conditions
12:53 AM 70.0 °F 63.0 °F 78% 29.99 in - Calm Calm - N/A   Unknown
1:53 AM 69.1 °F 64.9 °F 87% 29.98 in - South 3.5 mph - N/A   Unknown
2:53 AM 71.1 °F 68.0 °F 90% 29.96 in - SSW 10.4 mph - N/A   Unknown
3:53 AM 70.0 °F 68.0 °F 93% 29.94 in - SSW 12.7 mph - N/A   Unknown
4:53 AM 70.0 °F 66.9 °F 90% 29.94 in - SSW 10.4 mph 18.4 mph N/A   Unknown
5:53 AM 69.1 °F 66.9 °F 93% 29.95 in - SSW 12.7 mph 17.3 mph N/A   Unknown
6:53 AM 69.1 °F 66.9 °F 93% 29.96 in - SSW 11.5 mph 18.4 mph N/A   Unknown
7:53 AM 69.1 °F 66.9 °F 93% 29.97 in - SSW 11.5 mph - N/A   Unknown
8:53 AM 69.1 °F 66.9 °F 93% 29.98 in - South 10.4 mph - N/A   Unknown
9:53 AM 72.0 °F 66.9 °F 84% 29.97 in - SSW 11.5 mph - N/A   Unknown
10:53 AM 77.0 °F 64.9 °F 66% 29.96 in - SW 13.8 mph 25.3 mph N/A   Unknown
11:53 AM 78.1 °F 66.0 °F 66% 29.97 in - SSW 19.6 mph 25.3 mph N/A   Unknown
12:53 PM 78.1 °F 68.0 °F 71% 29.95 in - SW 8.1 mph 20.7 mph N/A   Unknown
1:53 PM 79.0 °F 68.0 °F 69% 29.93 in - SW 16.1 mph - N/A   Unknown
2:53 PM 78.1 °F 68.0 °F 71% 29.91 in - SSW 15.0 mph 24.2 mph N/A   Unknown
3:53 PM 75.9 °F 68.0 °F 76% 29.88 in - SSW 12.7 mph - N/A   Unknown
4:53 PM 75.9 °F 69.1 °F 79% 29.88 in - SSW 13.8 mph 19.6 mph N/A   Unknown
5:53 PM 73.9 °F 69.1 °F 85% 29.88 in - SSW 8.1 mph 20.7 mph N/A   Unknown
6:53 PM 72.0 °F 68.0 °F 87% 29.88 in - South 9.2 mph - N/A   Unknown
7:53 PM 72.0 °F 69.1 °F 91% 29.89 in - SSW 9.2 mph - N/A   Unknown
8:53 PM 71.1 °F 68.0 °F 90% 29.92 in - West 10.4 mph 21.9 mph N/A   Unknown
9:53 PM 68.0 °F 66.0 °F 93% 29.93 in - SW 3.5 mph - 0.15 in   Unknown
10:53 PM 68.0 °F 66.0 °F 93% 29.91 in - Calm Calm - N/A   Unknown
11:53 PM 68.0 °F 66.0 °F 93% 29.91 in - Calm Calm - N/A   Unknown